EW7512 Weather Reports


Display with metric or nautical units.
time (UTC)temp
F
wind
direction
speed
MPH
gust
MPH
rain 1hr
in
rain 24hr
in
rain mn
in
humidity
%
barometer
mb
20260831135511 83 72 6.0 14.0 0.00 0.00 0.00 40 1015.7
20260831135010 83 112 5.0 10.0 0.00 0.00 0.00 39 1015.6
20260831134510 83 96 4.0 11.0 0.00 0.00 0.00 41 1015.6
20260831134009 83 79 7.0 13.0 0.00 0.00 0.00 40 1015.5
20260831133509 83 360 4.0 13.0 0.00 0.00 0.00 41 1015.5
20260831133009 84 84 9.0 15.0 0.00 0.00 0.00 40 1015.5
20260831132510 83 71 7.0 15.0 0.00 0.00 0.00 40 1015.5
20260831132009 84 95 7.0 11.0 0.00 0.00 0.00 40 1015.5
20260831131514 84 62 5.0 16.0 0.00 0.00 0.00 40 1015.5
20260831131011 84 105 7.0 16.0 0.00 0.00 0.00 40 1015.5
20260831130508 84 82 7.0 14.0 0.00 0.00 0.00 41 1015.5
20260831130007 84 95 8.0 14.0 0.00 0.00 0.00 40 1015.5
20260831125508 84 92 5.0 13.0 0.00 0.00 0.00 41 1015.5
20260831125007 84 94 8.0 13.0 0.00 0.00 0.00 40 1015.6
20260831124509 84 82 8.0 13.0 0.00 0.00 0.00 42 1015.5
20260831124007 84 107 8.0 13.0 0.00 0.00 0.00 43 1015.5
20260831123505 84 88 4.0 10.0 0.00 0.00 0.00 44 1015.7
20260831123004 84 75 5.0 12.0 0.00 0.00 0.00 46 1015.7
20260831122504 84 67 7.0 11.0 0.00 0.00 0.00 45 1015.8
20260831122004 85 134 4.0 12.0 0.00 0.00 0.00 46 1015.8
20260831121504 85 42 4.0 13.0 0.00 0.00 0.00 44 1015.8
20260831121007 84 101 7.0 13.0 0.00 0.00 0.00 46 1016.0
20260831120504 85 82 5.0 13.0 0.00 0.00 0.00 42 1015.8
20260831120005 85 55 6.0 12.0 0.00 0.00 0.00 44 1015.7
20260831115503 84 137 6.0 15.0 0.00 0.00 0.00 46 1015.8
20260831115002 85 99 5.0 15.0 0.00 0.00 0.00 42 1016.0
20260831114503 85 92 7.0 14.0 0.00 0.00 0.00 39 1016.1
20260831114001 85 360 9.0 16.0 0.00 0.00 0.00 39 1016.1
20260831113503 85 67 5.0 16.0 0.00 0.00 0.00 40 1016.2
20260831113109 85 82 6.0 14.0 0.00 0.00 0.00 40 1016.1
20260831112600 85 105 6.0 11.0 0.00 0.00 0.00 41 1016.2
20260831112059 85 123 6.0 15.0 0.00 0.00 0.00 40 1016.2
20260831111601 85 84 6.0 15.0 0.00 0.00 0.00 41 1016.3
20260831111058 85 140 3.0 13.0 0.00 0.00 0.00 42 1016.3
20260831110557 85 85 6.0 13.0 0.00 0.00 0.00 42 1016.3
20260831110057 84 92 6.0 13.0 0.00 0.00 0.00 43 1016.4
20260831105557 85 38 7.0 12.0 0.00 0.00 0.00 43 1016.5
20260831105056 84 125 5.0 14.0 0.00 0.00 0.00 44 1016.5
20260831104556 85 70 7.0 14.0 0.00 0.00 0.00 43 1016.5
20260831104055 84 84 6.0 11.0 0.00 0.00 0.00 43 1016.6
20260831103555 85 79 4.0 13.0 0.00 0.00 0.00 43 1016.6
20260831103055 85 61 6.0 13.0 0.00 0.00 0.00 43 1016.7
20260831102554 84 90 3.0 15.0 0.00 0.00 0.00 44 1016.6
20260831102054 85 75 7.0 13.0 0.00 0.00 0.00 44 1016.7
20260831101554 85 67 5.0 16.0 0.00 0.00 0.00 43 1016.8
20260831101054 84 11 6.0 16.0 0.00 0.00 0.00 43 1016.8
20260831100553 84 71 5.0 16.0 0.00 0.00 0.00 44 1016.8
20260831100115 84 74 7.0 16.0 0.00 0.00 0.00 43 1016.8
20260831095551 84 46 4.0 14.0 0.00 0.00 0.00 44 1016.9
20260831095050 84 80 7.0 14.0 0.00 0.00 0.00 43 1016.9
20260831094549 84 37 3.0 12.0 0.00 0.00 0.00 44 1017.0
20260831094049 84 92 5.0 12.0 0.00 0.00 0.00 45 1017.0
20260831093548 84 32 5.0 12.0 0.00 0.00 0.00 44 1017.0
20260831093047 84 46 5.0 12.0 0.00 0.00 0.00 44 1017.0
20260831092549 83 67 5.0 11.0 0.00 0.00 0.00 45 1017.0
20260831092045 83 12 4.0 10.0 0.00 0.00 0.00 45 1017.0
20260831091551 84 78 4.0 10.0 0.00 0.00 0.00 44 1017.1
20260831091043 83 51 4.0 11.0 0.00 0.00 0.00 45 1017.1
20260831090542 84 70 5.0 10.0 0.00 0.00 0.00 45 1017.2
20260831090041 84 71 4.0 15.0 0.00 0.00 0.00 45 1017.1
20260831085540 83 31 5.0 15.0 0.00 0.00 0.00 47 1017.1
20260831085038 83 34 7.0 13.0 0.00 0.00 0.00 45 1017.2
20260831084549 82 61 3.0 14.0 0.00 0.00 0.00 47 1017.1
20260831084035 82 338 7.0 13.0 0.00 0.00 0.00 47 1017.1
20260831083534 83 62 5.0 12.0 0.00 0.00 0.00 47 1017.1
20260831083036 83 49 5.0 11.0 0.00 0.00 0.00 47 1017.2
20260831082531 83 43 4.0 13.0 0.00 0.00 0.00 47 1017.2
20260831082029 82 39 5.0 13.0 0.00 0.00 0.00 48 1017.1
20260831081528 82 34 4.0 12.0 0.00 0.00 0.00 48 1017.1
20260831081028 83 33 6.0 11.0 0.00 0.00 0.00 47 1017.2
20260831080526 82 11 3.0 11.0 0.00 0.00 0.00 48 1017.1
20260831080027 82 75 4.0 12.0 0.00 0.00 0.00 49 1017.1
20260831075524 81 71 7.0 12.0 0.00 0.00 0.00 49 1017.1
20260831075023 81 38 6.0 12.0 0.00 0.00 0.00 49 1017.2
20260831074523 81 53 4.0 11.0 0.00 0.00 0.00 51 1017.1
20260831074022 81 43 4.0 13.0 0.00 0.00 0.00 51 1017.2
20260831073524 81 91 5.0 11.0 0.00 0.00 0.00 52 1017.1
20260831073033 81 5 3.0 11.0 0.00 0.00 0.00 52 1017.1
20260831072524 80 78 4.0 11.0 0.00 0.00 0.00 52 1017.0
20260831072021 81 30 4.0 10.0 0.00 0.00 0.00 51 1017.1
20260831071519 81 80 2.0 11.0 0.00 0.00 0.00 53 1017.0
20260831071016 80 360 4.0 15.0 0.00 0.00 0.00 53 1017.0
20260831070515 80 27 4.0 15.0 0.00 0.00 0.00 54 1017.0
20260831070016 79 22 4.0 11.0 0.00 0.00 0.00 54 1017.0
20260831065511 79 17 5.0 10.0 0.00 0.00 0.00 55 1016.9
20260831065012 79 13 6.0 12.0 0.00 0.00 0.00 56 1016.9
20260831064516 79 33 6.0 12.0 0.00 0.00 0.00 55 1016.9
20260831064007 78 62 5.0 11.0 0.00 0.00 0.00 56 1016.9
20260831063506 78 17 5.0 13.0 0.00 0.00 0.00 57 1017.0
20260831063004 78 344 4.0 11.0 0.00 0.00 0.00 58 1017.0
20260831062503 78 5 5.0 11.0 0.00 0.00 0.00 58 1016.9
20260831062002 77 30 3.0 10.0 0.00 0.00 0.00 59 1017.0
20260831061601 77 51 5.0 10.0 0.00 0.00 0.00 59 1017.0
20260831061059 77 56 3.0 11.0 0.00 0.00 0.00 61 1017.1
20260831060559 76 44 4.0 6.0 0.00 0.00 0.00 62 1017.0
20260831055554 75 24 2.0 8.0 0.00 0.00 0.00 65 1017.0
20260831055053 75 44 3.0 6.0 0.00 0.00 0.00 65 1017.1
20260831054551 75 26 2.0 6.0 0.00 0.00 0.00 65 1017.1
20260831054050 74 27 2.0 5.0 0.00 0.00 0.00 66 1017.0
20260831053549 74 5 2.0 8.0 0.00 0.00 0.00 66 1017.0
20260831053056 74 5 3.0 8.0 0.00 0.00 0.00 66 1017.0
20260831052547 74 9 2.0 4.0 0.00 0.00 0.00 68 1017.0
20260831052045 73 36 1.0 5.0 0.00 0.00 0.00 70 1017.0
20260831051544 73 34 2.0 6.0 0.00 0.00 0.00 70 1017.1
20260831051041 73 25 1.0 6.0 0.00 0.00 0.00 70 1017.0
20260831050540 72 21 2.0 6.0 0.00 0.00 0.00 71 1016.9
20260831045537 71 34 2.0 4.0 0.00 0.00 0.00 71 1016.9
20260831045035 71 360 1.0 5.0 0.00 0.00 0.00 70 1016.8
20260831044534 71 360 2.0 5.0 0.00 0.00 0.00 71 1016.8
20260831044034 71 360 2.0 5.0 0.00 0.00 0.00 70 1016.7
20260831043533 71 32 1.0 5.0 0.00 0.00 0.00 67 1016.8
20260831043038 71 13 1.0 4.0 0.00 0.00 0.00 67 1016.8
20260831042531 71 19 1.0 4.0 0.00 0.00 0.00 65 1016.8
20260831042031 70 31 2.0 4.0 0.00 0.00 0.00 64 1016.8
20260831041527 70 47 1.0 3.0 0.00 0.00 0.00 63 1016.8
20260831041026 70 351 0.0 2.0 0.00 0.00 0.00 62 1016.8
20260831040525 70 348 0.0 3.0 0.00 0.00 0.00 62 1016.8
20260831040025 70 347 0.0 5.0 0.00 0.00 0.00 61 1016.7
20260831035524 70 345 1.0 5.0 0.00 0.00 0.00 62 1016.7
20260831035022 70 9 0.0 4.0 0.00 0.00 0.00 62 1016.8
20260831034522 70 9 0.0 4.0 0.00 0.00 0.00 60 1016.7
20260831034022 70 36 0.0 2.0 0.00 0.00 0.00 60 1016.7
20260831033524 70 37 0.0 0.0 0.00 0.00 0.00 60 1016.8
20260831033022 70 38 0.0 0.0 0.00 0.00 0.00 60 1016.7
20260831032525 70 38 0.0 0.0 0.00 0.00 0.00 60 1016.7
20260831032023 70 37 0.0 0.0 0.00 0.00 0.00 60 1016.7
20260831031520 70 38 0.0 0.0 0.00 0.00 0.00 60 1016.6
20260831031020 70 37 0.0 0.0 0.00 0.00 0.00 60 1016.6
20260831030520 70 37 0.0 0.0 0.00 0.00 0.00 60 1016.6
20260831030020 70 38 0.0 0.0 0.00 0.00 0.00 60 1016.6
20260831025520 70 37 0.0 0.0 0.00 0.00 0.00 60 1016.6
20260831025020 70 37 0.0 3.0 0.00 0.00 0.00 60 1016.6
20260831024524 70 37 0.0 3.0 0.00 0.00 0.00 60 1016.6
20260831024019 70 38 1.0 3.0 0.00 0.00 0.00 60 1016.6
20260831023518 70 37 0.0 3.0 0.00 0.00 0.00 61 1016.6
20260831023018 71 36 0.0 3.0 0.00 0.00 0.00 59 1016.6
20260831022519 71 36 1.0 2.0 0.00 0.00 0.00 59 1016.7
20260831022018 71 37 0.0 2.0 0.00 0.00 0.00 60 1016.7
20260831021517 70 31 0.0 1.0 0.00 0.00 0.00 60 1016.7
20260831021017 71 31 0.0 1.0 0.00 0.00 0.00 60 1016.7
20260831020517 71 31 0.0 1.0 0.00 0.00 0.00 60 1016.7
20260831020017 71 31 0.0 1.0 0.00 0.00 0.00 60 1016.7
20260831015519 71 30 0.0 1.0 0.00 0.00 0.00 60 1016.8
20260831015015 71 30 0.0 2.0 0.00 0.00 0.00 60 1016.8
20260831014515 71 30 0.0 2.0 0.00 0.00 0.00 60 1016.7
20260831014014 71 30 0.0 2.0 0.00 0.00 0.00 60 1016.7
20260831013514 71 30 0.0 2.0 0.00 0.00 0.00 61 1016.8
20260831013033 71 30 0.0 1.0 0.00 0.00 0.00 62 1016.8
20260831012514 71 30 0.0 3.0 0.00 0.00 0.00 62 1016.8
20260831012015 71 30 0.0 2.0 0.00 0.00 0.00 62 1016.8
20260831011518 71 29 0.0 3.0 0.00 0.00 0.00 62 1016.8
20260831011012 71 29 0.0 3.0 0.00 0.00 0.00 62 1016.8
20260831010512 71 10 0.0 2.0 0.00 0.00 0.00 63 1016.8
20260831010015 71 9 0.0 3.0 0.00 0.00 0.00 63 1016.9
20260831005513 71 9 1.0 3.0 0.00 0.00 0.00 63 1016.9
20260831005011 71 9 1.0 3.0 0.00 0.00 0.00 64 1016.9
20260831004513 71 360 0.0 2.0 0.00 0.00 0.00 64 1017.0
20260831004009 71 360 0.0 3.0 0.00 0.00 0.00 64 1017.0
20260831003512 71 348 1.0 4.0 0.00 0.00 0.00 64 1017.0
20260831003017 71 348 2.0 4.0 0.00 0.00 0.00 63 1017.1
20260831002509 71 340 2.0 4.0 0.00 0.00 0.00 64 1017.1
20260831002011 71 117 1.0 2.0 0.00 0.00 0.00 64 1017.0
20260831001520 71 119 0.0 0.0 0.00 0.00 0.00 65 1017.0
20260831001009 71 119 0.0 0.0 0.00 0.00 0.00 64 1017.0
20260831000507 71 119 0.0 0.0 0.00 0.00 0.00 65 1017.1
20260831000007 72 119 0.0 0.0 0.00 0.00 0.00 63 1017.1
20260830235506 72 120 0.0 1.0 0.00 0.00 0.00 63 1017.1
20260830235005 72 119 0.0 1.0 0.00 0.00 0.00 63 1017.1
20260830234505 72 119 0.0 1.0 0.00 0.00 0.00 63 1017.1
20260830234005 72 119 0.0 2.0 0.00 0.00 0.00 63 1017.1
20260830233508 72 119 0.0 2.0 0.00 0.00 0.00 62 1017.2
20260830233005 72 119 0.0 2.0 0.00 0.00 0.00 63 1017.2
20260830232505 72 171 0.0 0.0 0.00 0.00 0.00 63 1017.2
20260830232007 72 187 0.0 0.0 0.00 0.00 0.00 63 1017.3
20260830231504 72 188 0.0 0.0 0.00 0.00 0.00 63 1017.3
20260830231005 72 188 0.0 0.0 0.00 0.00 0.00 63 1017.2
20260830230506 72 192 0.0 1.0 0.00 0.00 0.00 63 1017.3
20260830230003 71 194 0.0 2.0 0.00 0.00 0.00 64 1017.3
20260830225503 71 194 0.0 2.0 0.00 0.00 0.00 64 1017.3
20260830225003 72 196 0.0 0.0 0.00 0.00 0.00 63 1017.3
20260830224501 72 196 0.0 0.0 0.00 0.00 0.00 62 1017.2
20260830224100 72 195 0.0 0.0 0.00 0.00 0.00 62 1017.3
20260830223600 72 196 0.0 0.0 0.00 0.00 0.00 62 1017.3
20260830223100 72 186 0.0 0.0 0.00 0.00 0.00 61 1017.4
20260830222601 72 186 0.0 0.0 0.00 0.00 0.00 61 1017.4
20260830222058 72 186 0.0 0.0 0.00 0.00 0.00 59 1017.3
20260830221558 72 186 0.0 0.0 0.00 0.00 0.00 59 1017.4
20260830221057 73 186 0.0 0.0 0.00 0.00 0.00 58 1017.4
20260830220557 73 186 0.0 0.0 0.00 0.00 0.00 58 1017.5
20260830220058 73 175 0.0 0.0 0.00 0.00 0.00 58 1017.5
20260830215557 73 175 0.0 0.0 0.00 0.00 0.00 57 1017.4
20260830215056 73 174 0.0 0.0 0.00 0.00 0.00 57 1017.4
20260830214556 73 175 0.0 0.0 0.00 0.00 0.00 57 1017.5
20260830214056 73 175 0.0 0.0 0.00 0.00 0.00 57 1017.6
20260830213554 73 174 0.0 0.0 0.00 0.00 0.00 56 1017.5
20260830213054 73 174 0.0 0.0 0.00 0.00 0.00 55 1017.4
20260830212553 73 175 0.0 0.0 0.00 0.00 0.00 55 1017.3
20260830212053 73 175 0.0 0.0 0.00 0.00 0.00 55 1017.3
20260830211553 73 174 0.0 0.0 0.00 0.00 0.00 55 1017.3
20260830211052 73 174 0.0 0.0 0.00 0.00 0.00 55 1017.3
20260830210551 73 174 0.0 0.0 0.00 0.00 0.00 54 1017.4
20260830210100 74 175 0.0 0.0 0.00 0.00 0.00 53 1017.4
20260830205550 73 174 0.0 0.0 0.00 0.00 0.00 53 1017.3
20260830205049 73 174 0.0 0.0 0.00 0.00 0.00 53 1017.3
20260830204554 73 174 0.0 0.0 0.00 0.00 0.00 54 1017.3
20260830204051 73 174 0.0 0.0 0.00 0.00 0.00 54 1017.3
20260830203549 73 175 0.0 1.0 0.00 0.00 0.00 55 1017.3
20260830203049 73 174 0.0 1.0 0.00 0.00 0.00 55 1017.2
20260830202549 73 174 0.0 0.0 0.00 0.00 0.00 56 1017.2
20260830202048 73 175 0.0 1.0 0.00 0.00 0.00 54 1017.3
20260830201550 74 174 0.0 2.0 0.00 0.00 0.00 52 1017.2
20260830201048 74 174 0.0 2.0 0.00 0.00 0.00 52 1017.2
20260830200548 74 174 0.0 1.0 0.00 0.00 0.00 52 1017.1
20260830200104 74 142 0.0 0.0 0.00 0.00 0.00 52 1017.1
20260830195549 74 142 0.0 0.0 0.00 0.00 0.00 52 1017.0
20260830195048 74 142 0.0 0.0 0.00 0.00 0.00 52 1017.0
20260830194601 74 142 0.0 1.0 0.00 0.00 0.00 52 1017.0
20260830194048 73 141 0.0 0.0 0.00 0.00 0.00 54 1017.0
20260830193550 73 141 0.0 0.0 0.00 0.00 0.00 56 1017.0
20260830193047 73 141 0.0 0.0 0.00 0.00 0.00 58 1016.9
20260830192547 73 141 0.0 0.0 0.00 0.00 0.00 60 1017.0
20260830192047 73 142 0.0 0.0 0.00 0.00 0.00 59 1016.9
20260830191547 72 142 0.0 1.0 0.00 0.00 0.00 61 1016.9
20260830191048 72 141 0.0 1.0 0.00 0.00 0.00 63 1016.9
20260830190547 73 142 0.0 0.0 0.00 0.00 0.00 62 1017.0
20260830190047 73 141 0.0 0.0 0.00 0.00 0.00 59 1017.0
20260830185547 73 360 0.0 3.0 0.00 0.00 0.00 61 1017.0
20260830185046 73 360 0.0 3.0 0.00 0.00 0.00 61 1016.9
20260830184545 73 360 0.0 3.0 0.00 0.00 0.00 62 1016.9
20260830184045 73 360 1.0 3.0 0.00 0.00 0.00 62 1016.8
20260830183547 74 360 1.0 3.0 0.00 0.00 0.00 61 1016.8
20260830183046 74 360 1.0 3.0 0.00 0.00 0.00 61 1016.8
20260830182545 74 360 0.0 0.0 0.00 0.00 0.00 61 1016.7
20260830182045 74 360 0.0 0.0 0.00 0.00 0.00 61 1016.7
20260830181545 74 360 0.0 0.0 0.00 0.00 0.00 60 1016.6
20260830181045 74 106 0.0 2.0 0.00 0.00 0.00 60 1016.7
20260830180544 74 360 0.0 2.0 0.00 0.00 0.00 60 1016.7
20260830180045 74 360 0.0 2.0 0.00 0.00 0.00 60 1016.6
20260830175544 74 360 0.0 2.0 0.00 0.00 0.00 59 1016.6
20260830175044 75 360 0.0 2.0 0.00 0.00 0.00 59 1016.5
20260830174549 75 360 0.0 2.0 0.00 0.00 0.00 58 1016.5
20260830174047 75 360 0.0 1.0 0.00 0.00 0.00 58 1016.5
20260830173543 75 360 0.0 1.0 0.00 0.00 0.00 57 1016.4
20260830173102 75 360 0.0 2.0 0.00 0.00 0.00 57 1016.3
20260830172544 75 360 0.0 2.0 0.00 0.00 0.00 57 1016.3
20260830172043 75 360 0.0 2.0 0.00 0.00 0.00 57 1016.2
20260830171548 76 360 0.0 3.0 0.00 0.00 0.00 56 1016.2
20260830171044 76 360 1.0 3.0 0.00 0.00 0.00 56 1016.3
20260830170547 76 360 1.0 4.0 0.00 0.00 0.00 56 1016.2
20260830170052 76 360 1.0 4.0 0.00 0.00 0.00 55 1016.2
20260830165544 76 360 1.0 3.0 0.00 0.00 0.00 55 1016.2
20260830165042 76 360 1.0 3.0 0.00 0.00 0.00 54 1016.2
20260830164549 77 360 1.0 3.0 0.00 0.00 0.00 54 1016.2
20260830164042 77 360 1.0 3.0 0.00 0.00 0.00 53 1016.2
20260830163542 77 360 2.0 4.0 0.00 0.00 0.00 53 1016.3
20260830163054 77 138 2.0 5.0 0.00 0.00 0.00 53 1016.2
20260830162542 77 130 2.0 5.0 0.00 0.00 0.00 53 1016.3
20260830162041 77 89 2.0 5.0 0.00 0.00 0.00 53 1016.3
20260830161600 78 78 3.0 8.0 0.00 0.00 0.00 53 1016.3
20260830161041 78 82 4.0 9.0 0.00 0.00 0.00 53 1016.3
20260830160541 78 108 4.0 10.0 0.00 0.00 0.00 53 1016.2
20260830160041 78 74 4.0 8.0 0.00 0.00 0.00 53 1016.3
20260830155541 78 92 4.0 8.0 0.00 0.00 0.00 53 1016.2
20260830155041 79 73 2.0 7.0 0.00 0.00 0.00 53 1016.1
20260830154541 79 86 3.0 6.0 0.00 0.00 0.00 53 1016.1
20260830154041 79 115 2.0 8.0 0.00 0.00 0.00 53 1016.1
20260830153540 79 78 3.0 12.0 0.00 0.00 0.00 52 1016.1
20260830153047 79 132 5.0 12.0 0.00 0.00 0.00 52 1016.1
20260830152540 79 125 4.0 8.0 0.00 0.00 0.00 52 1016.0
20260830152044 79 142 4.0 8.0 0.00 0.00 0.00 52 1016.0
20260830151542 79 101 3.0 8.0 0.00 0.00 0.00 52 1015.9
20260830151040 80 105 3.0 11.0 0.00 0.00 0.00 51 1015.9
20260830150543 80 86 4.0 10.0 0.00 0.00 0.00 52 1015.9
20260830150058 80 111 4.0 8.0 0.00 0.00 0.00 52 1016.0
20260830145539 80 92 2.0 7.0 0.00 0.00 0.00 52 1016.0
20260830145038 81 93 3.0 8.0 0.00 0.00 0.00 51 1015.9
20260830144542 80 119 3.0 8.0 0.00 0.00 0.00 52 1015.8
20260830144038 81 80 2.0 9.0 0.00 0.00 0.00 52 1015.8
20260830143538 81 105 5.0 11.0 0.00 0.00 0.00 51 1015.8
20260830143038 81 360 4.0 10.0 0.00 0.00 0.00 51 1015.8
20260830142538 81 132 3.0 12.0 0.00 0.00 0.00 51 1015.7
20260830142038 81 121 3.0 12.0 0.00 0.00 0.00 50 1015.8
20260830141538 81 136 4.0 9.0 0.00 0.00 0.00 51 1015.7
20260830141037 81 123 3.0 10.0 0.00 0.00 0.00 51 1015.8
20260830140536 81 136 3.0 10.0 0.00 0.00 0.00 50 1015.8
20260830140037 81 118 5.0 10.0 0.00 0.00 0.00 50 1015.8